Regional Weather Roundup
Issued by NWS New Orleans/Baton Rouge, LA

Home | Current Version | Previous Version | Text Only | Print | Product List | Glossary Off
Versions: 1 2 3 4 5 6 7 8 9 10 11 12 13 14 15 16 17 18 19 20 21 22 23 24 25 26 27 28 29 30 31 32 33 34 35 36 37 38 39 40 41 42 43 44 45 46 47 48 49 50

763
ASUS44 KLIX 291801
RWRLIX
NEW ORLEANS REGIONAL WEATHER ROUNDUP
NATIONAL WEATHER SERVICE NEW ORLEANS LA
1200 PM CST THU JAN 29 2015

NOTE: "FAIR" INDICATES FEW OR NO CLOUDS BELOW 12,000 FEET WITH NO
      SIGNIFICANT WEATHER AND/OR OBSTRUCTIONS TO VISIBILITY.
      SKY/WX - SKY CONDITION AND SIGNIFICANT WEATHER.
      TMP - AIR TEMPERATURE.     DP    - DEWPOINT TEMPERATURE.
      RH  - RELATIVE HUMIDITY.   PRES  - PRESSURE.
      HI  - HEAT INDEX.          WCI   - WIND CHILL INDEX.

*  THESE STATIONS ARE NOT NWS OR FAA STATIONS AND ARE NOT UNDER
   NWS QUALITY CONTROL.

LAZ038-040-048-061>063-065>067-069-291900-
SOUTHEAST LOUISIANA

CITY           SKY/WX    TMP DP  RH WIND       PRES   REMARKS
N.O. AUDUBON     N/A     76  61  60 MISG        N/A
6HR MIN TEMP:  50; 6HR MAX TEMP:  76;

N.O. INTL ARPT MOSUNNY   71  57  61 SW8       30.26F
6HR MIN TEMP:  47; 6HR MAX TEMP:  72;

N.O. LAKEFRONT MOSUNNY   67  54  63 N6        30.27F
6HR MIN TEMP:  50; 6HR MAX TEMP:  72;

N.O. DOWNTOWN* NOT AVBL
SLIDELL        PTSUNNY   70  53  54 S9        30.26F
6HR MIN TEMP:  36; 6HR MAX TEMP:  71;

BATON ROUGE    SUNNY     72  57  59 SW10      30.24F
6HR MIN TEMP:  41; 6HR MAX TEMP:  73;

BOOTHVILLE     SUNNY     69  56  62 S12       30.27F
6HR MIN TEMP:  50; 6HR MAX TEMP:  69;

BELLE CHASSE   PTSUNNY   73  56  54 SW8       30.26F
6HR MIN TEMP:  41; 6HR MAX TEMP:  74;

BOGALUSA*        N/A     73  54  51 SW10      30.26F
6HR MIN TEMP:  35; 6HR MAX TEMP:  73;

GALLIANO*      NOT AVBL
NEW ROADS*     NOT AVBL
GONZALES*      NOT AVBL
HAMMOND*       NOT AVBL
HOUMA*         PTSUNNY   72  61  68 S7        30.26F
PORT FOURCHON* CLEAR     70  59  68 S10       30.29F

$$

MSZ070-080>082-291900-
SOUTHERN MISSISSIPPI

CITY           SKY/WX    TMP DP  RH WIND       PRES   REMARKS
MCCOMB         SUNNY     70  56  61 SW14G21   30.23F
6HR MIN TEMP:  41; 6HR MAX TEMP:  71;

GULFPORT       SUNNY     68  51  54 S7        30.27F
6HR MIN TEMP:  40; 6HR MAX TEMP:  68;

BILOXI         SUNNY     69  53  57 VRB7      30.27F
6HR MIN TEMP:  44; 6HR MAX TEMP:  69;

PASCAGOULA     SUNNY     70  52  52 S9G17     30.27F
6HR MIN TEMP:  36; 6HR MAX TEMP:  70;

STENNIS ARPT*  MOSUNNY   72  48  43 S9        30.26F

$$

COASTAL OBSERVATIONS
LAKE AND NEARSHORE STATIONS

STATION/POSITION TIME  TEMP    WIND        PRES    WAVE
                       AIR SEA DIR/SP/G            HT/PER
                 (UTC) (F)     (DEG/KT/KT) (MB)    (FT/S)
PASCAGOULA       1720   65     180/  5/  7 1025.2
WAVELAND YACHT   1720   61     150/  5/  6 1024.7
GRAND ISLE       1720   67 61  160/  8/ 10 1025.3
SOUTHWEST PASS   1720   62 45  150/  4/  5 1025.2
NEW CANAL        1720   69 54  200/  7/ 10 1025.5
SHELL BEACH      1720   67 56  150/  8/ 12 1025.1

OFFSHORE STATIONS

STATION/POSITION TIME  TEMP    WIND        PRES    WAVE
                       AIR SEA DIR/SP/G            HT/PER
                 (UTC) (F)     (DEG/KT/KT) (MB)    (FT/S)
64 S DAUPHIN ISL 1654   66 69  180/  8/ 12 1025.4    2/ 4

$$




USA.gov is the U.S. government's official web portal to all federal, state and local government web resources and services.